TimeCDT,TemperatureF,Dew PointF,Humidity,Sea Level PressureIn,VisibilityMPH,Wind Direction,Wind SpeedMPH,Gust SpeedMPH,PrecipitationIn,Events,Conditions,WindDirDegrees,DateUTC
12:00 AM,55.4,55.4,100,30.03,0.8,Calm,Calm,-,N/A,,Mist,0,2012-10-03 05:00:00
12:07 AM,55.4,55.4,100,30.02,0.2,Calm,Calm,-,N/A,Fog,Fog,0,2012-10-03 05:07:00
12:39 AM,55.4,55.4,100,30.03,1.0,Calm,Calm,-,N/A,,Mist,0,2012-10-03 05:39:00
12:45 AM,55.4,55.4,100,30.03,0.5,Calm,Calm,-,N/A,Fog,Fog,0,2012-10-03 05:45:00
12:53 AM,55.9,55.9,100,30.03,0.2,Calm,Calm,-,0.00,Fog-Rain,Light Rain,0,2012-10-03 05:53:00
1:53 AM,57.0,57.0,100,30.04,0.2,Calm,Calm,-,0.00,Fog,Fog,0,2012-10-03 06:53:00
2:53 AM,55.0,55.0,100,30.04,0.2,Calm,Calm,-,N/A,Fog,Fog,0,2012-10-03 07:53:00
3:53 AM,54.0,54.0,100,30.06,0.5,Calm,Calm,-,N/A,Fog,Fog,0,2012-10-03 08:53:00
4:53 AM,55.0,55.0,100,30.07,0.2,Calm,Calm,-,N/A,Fog,Fog,0,2012-10-03 09:53:00
5:53 AM,54.0,54.0,100,30.09,0.2,Calm,Calm,-,N/A,Fog,Fog,0,2012-10-03 10:53:00
6:11 AM,53.6,53.6,100,30.10,1.0,Calm,Calm,-,N/A,,Mist,0,2012-10-03 11:11:00
6:15 AM,53.6,53.6,100,30.10,4.0,Calm,Calm,-,N/A,,Overcast,0,2012-10-03 11:15:00
6:49 AM,53.6,53.6,100,30.12,1.8,Calm,Calm,-,N/A,,Overcast,0,2012-10-03 11:49:00
6:53 AM,54.0,54.0,100,30.12,1.0,Calm,Calm,-,N/A,,Overcast,0,2012-10-03 11:53:00
6:58 AM,53.6,53.6,100,30.12,0.5,Calm,Calm,-,N/A,Fog,Fog,0,2012-10-03 11:58:00
7:53 AM,55.9,55.9,100,30.13,0.2,Calm,Calm,-,N/A,Fog,Fog,0,2012-10-03 12:53:00
8:53 AM,57.0,57.0,100,30.16,0.2,Calm,Calm,-,N/A,Fog,Fog,0,2012-10-03 13:53:00
9:07 AM,57.2,57.2,100,30.16,1.0,Calm,Calm,-,N/A,,Overcast,0,2012-10-03 14:07:00
9:49 AM,57.2,57.2,100,30.17,3.0,Calm,Calm,-,N/A,,Overcast,0,2012-10-03 14:49:00
9:53 AM,57.9,57.9,100,30.17,3.0,Calm,Calm,-,N/A,,Overcast,0,2012-10-03 14:53:00
10:00 AM,57.2,57.2,100,30.17,4.0,Calm,Calm,-,N/A,,Overcast,0,2012-10-03 15:00:00
10:53 AM,62.1,59.0,90,30.17,5.0,Calm,Calm,-,N/A,,Overcast,0,2012-10-03 15:53:00
11:05 AM,62.6,59.0,88,30.17,6.0,Calm,Calm,-,N/A,,Overcast,0,2012-10-03 16:05:00
11:28 AM,64.4,60.8,88,30.17,7.0,Calm,Calm,-,N/A,,Scattered Clouds,0,2012-10-03 16:28:00
11:53 AM,66.9,59.0,76,30.16,8.0,Calm,Calm,-,N/A,,Clear,0,2012-10-03 16:53:00
12:53 PM,69.1,55.9,63,30.14,10.0,SSE,3.5,-,N/A,,Clear,160,2012-10-03 17:53:00
1:53 PM,70.0,55.9,61,30.13,10.0,Calm,Calm,-,N/A,,Clear,0,2012-10-03 18:53:00
2:53 PM,73.0,52.0,48,30.12,10.0,Variable,3.5,-,N/A,,Clear,0,2012-10-03 19:53:00
3:53 PM,72.0,51.1,48,30.12,10.0,Calm,Calm,-,N/A,,Clear,0,2012-10-03 20:53:00
4:53 PM,71.1,55.0,57,30.13,10.0,Calm,Calm,-,N/A,,Clear,0,2012-10-03 21:53:00
5:53 PM,66.9,57.9,73,30.14,10.0,Calm,Calm,-,N/A,,Clear,0,2012-10-03 22:53:00
6:53 PM,64.0,60.1,87,30.16,10.0,Calm,Calm,-,N/A,,Clear,0,2012-10-03 23:53:00
7:53 PM,62.1,59.0,90,30.17,8.0,Calm,Calm,-,N/A,,Clear,0,2012-10-04 00:53:00
8:53 PM,60.1,59.0,96,30.18,6.0,Calm,Calm,-,0.01,,Clear,0,2012-10-04 01:53:00
9:53 PM,61.0,57.9,90,30.20,8.0,Calm,Calm,-,N/A,,Clear,0,2012-10-04 02:53:00
10:53 PM,59.0,57.9,96,30.20,6.0,NNE,4.6,-,N/A,,Clear,30,2012-10-04 03:53:00
11:53 PM,57.9,57.0,97,30.21,6.0,Calm,Calm,-,N/A,,Clear,0,2012-10-04 04:53:00